Location: Wiler
(46.4041°N, 7.7840°E)
Time: 02:56:57
(UTC+00:00)

Cosmos 2184 Rocket - Visible Passes

Search period start: 05 August 2021 00:00
Search period end: 15 August 2021 00:00
Orbit: 960 x 1001 km, 82.9° (Epoch: 04 August)

Date Brightness Start Highest point End Pass type
(mag) Time Alt. Az. Time Alt. Az. Time Alt. Az.
05 Aug 5.1 01:26:44 26° WSW 01:28:43 31° WNW 01:34:17 10° N visible
05 Aug 6.0 22:24:02 13° E 22:25:21 14° ENE 22:28:25 10° NE visible
06 Aug 3.9 00:08:48 65° S 00:09:48 84° E 00:16:11 10° N visible
06 Aug 5.7 01:53:35 15° W 01:56:09 18° WNW 02:00:25 10° NNW visible
06 Aug 5.3 22:50:52 25° E 22:51:45 26° E 22:56:47 10° NNE visible
07 Aug 4.2 00:35:38 50° WSW 00:36:47 57° WNW 00:43:03 10° N visible
07 Aug 6.2 02:23:02 10° WNW 02:23:50 10° NW 02:24:38 10° NW visible
07 Aug 4.5 23:17:41 43° ESE 23:18:20 45° E 23:24:19 10° NNE visible
08 Aug 5.0 01:02:28 30° W 01:03:59 33° WNW 01:09:40 10° N visible
08 Aug 6.0 21:59:44 13° E 22:00:44 13° ENE 22:03:26 10° NE visible
08 Aug 3.9 23:44:30 72° SSE 23:45:06 79° E 23:51:29 10° N visible
09 Aug 5.7 01:29:17 17° W 01:31:23 20° WNW 01:35:52 10° NNW visible
09 Aug 5.4 22:26:32 24° E 22:27:07 24° E 22:32:00 10° NNE visible
10 Aug 4.1 00:11:19 57° WSW 00:12:04 61° WNW 00:18:23 10° N visible
10 Aug 6.2 01:57:16 10° WNW 01:59:02 11° NW 02:00:47 10° NW visible
10 Aug 4.6 22:53:20 42° E 22:53:40 42° E 22:59:35 10° NNE visible
11 Aug 4.9 00:38:06 33° W 00:39:14 35° WNW 00:45:02 10° N visible
11 Aug 6.0 21:35:21 12° E 21:36:07 12° ENE 21:38:22 10° NE visible
11 Aug 3.9 23:20:07 72° ESE 23:20:25 74° E 23:26:47 10° NNE visible
12 Aug 5.6 01:04:54 19° W 01:06:37 21° WNW 01:11:19 10° NNW visible
12 Aug 5.4 22:02:08 22° E 22:02:28 22° E 22:07:11 10° NNE visible
12 Aug 4.1 23:46:54 63° WSW 23:47:22 65° WNW 23:53:43 10° N visible
13 Aug 6.2 01:31:54 10° W 01:34:15 12° WNW 01:36:35 10° NW visible
13 Aug 4.7 22:28:54 39° E 22:29:00 39° E 22:34:51 10° NNE visible
14 Aug 4.9 00:13:40 36° W 00:14:30 38° WNW 00:20:24 10° N visible
14 Aug 6.0 21:10:54 11° E 21:11:31 11° ENE 21:13:11 10° ENE visible
14 Aug 4.0 22:55:40 69° E 22:55:44 69° E 23:02:05 10° NNE visible
